Location: Lecco
(45.8566°N, 9.3977°E)
Time: 03:43:20
(UTC+02:00)

S-56A Canister/Altair - Visible Passes

Search period start: 08 May 2021 00:00
Search period end: 18 May 2021 00:00
Orbit: 632 x 2501 km, 38.9° (Epoch: 07 May)

Date Brightness Start Highest point End Pass type
(mag) Time Alt. Az. Time Alt. Az. Time Alt. Az.
08 May 9.7 00:27:46 10° W 00:36:26 29° SW 00:36:26 29° SW visible
08 May 9.5 21:46:36 10° W 21:59:52 59° SSW 22:07:53 15° ESE visible
08 May 9.5 23:53:56 10° W 00:03:51 34° SW 00:05:18 33° SSW visible
09 May 9.7 21:12:51 10° W 21:26:41 62° S 21:36:32 10° ESE visible
09 May 9.5 23:20:05 10° W 23:31:03 39° SSW 23:34:09 31° S visible
10 May 10.7 01:30:30 10° WSW 01:31:34 11° WSW 01:31:34 11° WSW visible
10 May 9.6 22:46:15 10° W 22:58:08 43° SSW 23:03:01 27° SSE visible
11 May 10.4 00:55:24 10° W 01:00:26 15° SW 01:00:26 15° SW visible
11 May 9.8 22:12:26 10° W 22:25:09 48° SSW 22:31:54 20° SE visible
12 May 10.3 00:20:58 10° W 00:28:11 19° SW 00:29:18 19° SW visible
12 May 9.9 21:38:39 10° W 21:52:03 52° SSW 22:00:47 14° SE visible
12 May 10.1 23:46:44 10° W 23:55:29 24° SW 23:58:12 21° SSW visible
13 May 10.0 21:04:53 10° W 21:18:51 55° SSW 21:29:14 10° SE visible
13 May 10.1 23:12:39 10° W 23:22:42 28° SW 23:27:05 21° S visible
14 May 10.2 22:38:39 10° W 22:49:50 32° SW 22:56:01 18° S visible
15 May 10.3 22:04:44 10° W 22:16:52 36° SW 22:24:57 14° SSE visible
16 May 10.9 00:17:44 10° WSW 00:19:17 10° WSW 00:20:46 10° SW visible
16 May 10.4 21:30:52 10° W 21:43:48 41° SW 21:53:48 10° SSE visible
16 May 10.8 23:41:14 10° W 23:46:36 14° SW 23:51:21 10° SSW visible
17 May 10.8 23:06:20 10° W 23:13:51 17° SW 23:20:15 10° SSW visible
